Location: Catstown
(52.4386°N, 7.2633°W)
Time: 10:43:28
(UTC+00:00)

Cosmos 1833 Rocket - Pass Details

Date: 22 January 2021
Orbit: 833 x 839 km, 71.0° (Epoch: 24 February)

Event Time Altitude Azimuth Distance (km) Brightness Sun altitude
Rises 20:39:13 0° 325° (NW) 3,393 6.4 -33.2°
Reaches altitude 10° 20:41:47 10° 318° (NW) 2,455 5.7 -33.6°
Enters shadow 20:46:55 39° 252° (WSW) 1,237 3.8 -34.4°
